Truckee-Tahoe, CA

6:55 AM PST on November 19, 2017 (GMT -0800)
Truckee-Tahoe

Weather History for KTRK - October, 2014

Change the Weather History Date:

Tuesday, October 7, 2014

  Actual Average Record
Temperature  
Mean Temperature 55 °F -  
Max Temperature 78 °F 67 °F 86 °F (1987)
Min Temperature 32 °F 31 °F 17 °F (1961)
Degree Days  
Heating Degree Days 10    
Growing Degree Days 5 (Base 50)    
Moisture  
Dew Point 29 °F    
Average Humidity 58    
Maximum Humidity 100    
Minimum Humidity 13    
Precipitation  
Precipitation 0.00 in - - ()
Sea Level Pressure  
Sea Level Pressure 30.19 in    
Wind  
Wind Speed 1 mph (SSW)    
Max Wind Speed 15 mph    
Max Gust Speed 21 mph    
Visibility 10 miles    
Events      
Averages and records for this station are not official NWS values.
T = Trace of Precipitation, MM = Missing Value Source: NWS Daily Summary

Daily Weather History Graph

Daily Weather History Graph

Search for Another Location

Airport or City:

Trip Planner

Search our weather history database for the weather conditions in past years. The results will help you decide how hot, cold, wet, or windy it might be!

Date:

Astronomy

Oct. 07, 2014 Rise Set
Actual Time 7:02 AM PDT 6:33 PM PDT
Civil Twilight 6:35 AM PDT 7:00 PM PDT
Nautical Twilight 6:04 AM PDT 7:31 PM PDT
Astronomical Twilight 5:33 AM PDT 8:02 PM PDT
Moon 6:12 PM PDT (10/7) 6:05 AM PDT (10/7)
Length of Visible Light 12h 24m
Length of Day
11h 31m
Waxing Gibbous, 99% of the Moon is Illuminated
Oct 7
Waxing Gibbous
Oct 8
Full
Oct 15
Last Quarter
Oct 23
New
Oct 30
First Quarter

Hourly Weather History & Observations

Time (PDT) Temp. Windchill Dew Point Humidity Pressure Visibility Wind Dir Wind Speed Gust Speed Precip Events Conditions
12:15 AM 44.6 °F - 33.8 °F 66% 30.22 in 10.0 mi Calm Calm - N/A   Clear
12:35 AM 39.2 °F - 32.0 °F 75% 30.22 in 10.0 mi Calm Calm - N/A   Clear
12:55 AM 37.4 °F - 32.0 °F 81% 30.22 in 10.0 mi Calm Calm - N/A   Clear
1:15 AM 41.0 °F - 33.8 °F 76% 30.22 in 10.0 mi Calm Calm - N/A   Clear
1:35 AM 41.0 °F - 33.8 °F 76% 30.22 in 10.0 mi Calm Calm - N/A   Clear
1:55 AM 41.0 °F - 32.0 °F 70% 30.22 in 10.0 mi Calm Calm - N/A   Clear
2:15 AM 37.4 °F - 32.0 °F 81% 30.23 in 10.0 mi Calm Calm - N/A   Clear
2:35 AM 33.8 °F - 32.0 °F 93% 30.22 in 10.0 mi Calm Calm - N/A   Clear
2:55 AM 37.4 °F - 32.0 °F 81% 30.22 in 10.0 mi Calm Calm - N/A   Clear
3:15 AM 37.4 °F - 32.0 °F 81% 30.22 in 10.0 mi Calm Calm - N/A   Clear
3:35 AM 35.6 °F - 32.0 °F 87% 30.22 in 10.0 mi Calm Calm - N/A   Clear
3:55 AM 35.6 °F - 32.0 °F 87% 30.22 in 10.0 mi Calm Calm - N/A   Clear
4:15 AM 35.6 °F - 32.0 °F 87% 30.22 in 10.0 mi Calm Calm - N/A   Clear
4:35 AM 33.8 °F - 32.0 °F 93% 30.21 in 10.0 mi Calm Calm - N/A   Clear
4:55 AM 33.8 °F - 32.0 °F 93% 30.21 in 10.0 mi Calm Calm - N/A   Clear
5:15 AM 33.8 °F - 32.0 °F 93% 30.22 in 10.0 mi Calm Calm - N/A   Clear
5:35 AM 33.8 °F - 32.0 °F 93% 30.22 in 10.0 mi Calm Calm - N/A   Clear
5:55 AM 33.8 °F - 32.0 °F 93% 30.22 in 10.0 mi Calm Calm - N/A   Clear
6:15 AM 32.0 °F - 32.0 °F 100% 30.22 in 10.0 mi Calm Calm - N/A   Clear
6:35 AM 33.8 °F - 32.0 °F 93% 30.22 in 10.0 mi Calm Calm - N/A   Clear
6:50 AM 33.8 °F - 30.2 °F 87% 30.23 in 10.0 mi Calm Calm - N/A   Clear
7:55 AM 35.6 °F - 33.8 °F 93% 30.23 in 10.0 mi Calm Calm - N/A   Partly Cloudy
8:55 AM 46.4 °F - 33.8 °F 62% 30.23 in 10.0 mi Calm Calm - N/A   Partly Cloudy
9:50 AM 53.6 °F - 35.6 °F 51% 30.23 in 10.0 mi Calm Calm - N/A   Scattered Clouds
10:55 AM 64.4 °F - 35.6 °F 34% 30.21 in 10.0 mi Calm Calm - N/A   Scattered Clouds
11:50 AM 69.8 °F - 35.6 °F 28% 30.19 in 10.0 mi Calm Calm - N/A   Scattered Clouds
12:45 PM 77.0 °F - 32.0 °F 19% 30.17 in 10.0 mi West 5.8 mph - N/A   Scattered Clouds
1:45 PM 78.8 °F - 28.4 °F 16% 30.15 in 10.0 mi West 11.5 mph 20.7 mph N/A   Scattered Clouds
2:45 PM 78.8 °F - 26.6 °F 15% 30.14 in 10.0 mi West 15.0 mph 20.7 mph N/A   Scattered Clouds
3:50 PM 73.4 °F - 19.4 °F 13% 30.14 in 10.0 mi WSW 11.5 mph 18.4 mph N/A   Scattered Clouds
4:55 PM 73.4 °F - 24.8 °F 16% 30.13 in 10.0 mi SSW 5.8 mph - N/A   Scattered Clouds
5:45 PM 69.8 °F - 21.2 °F 16% 30.14 in 10.0 mi SW 4.6 mph - N/A   Scattered Clouds
6:15 PM 66.2 °F - 21.2 °F 18% 30.13 in 10.0 mi Calm Calm - N/A   Clear
6:35 PM 66.2 °F - 19.4 °F 17% 30.14 in 10.0 mi Calm Calm - N/A   Clear
6:55 PM 57.2 °F - 21.2 °F 25% 30.14 in 10.0 mi SE 6.9 mph - N/A   Clear
7:15 PM 53.6 °F - 23.0 °F 30% 30.14 in 10.0 mi SSE 6.9 mph - N/A   Clear
7:35 PM 51.8 °F - 23.0 °F 33% 30.15 in 10.0 mi SSE 4.6 mph - N/A   Clear
7:55 PM 50.0 °F - 23.0 °F 35% 30.15 in 10.0 mi SE 5.8 mph - N/A   Clear
8:15 PM 50.0 °F - 23.0 °F 35% 30.15 in 10.0 mi Calm Calm - N/A   Clear
8:35 PM 51.8 °F - 24.8 °F 35% 30.16 in 10.0 mi Calm Calm - N/A   Clear
8:55 PM 46.4 °F 45.2 °F 24.8 °F 43% 30.16 in 10.0 mi SSW 3.5 mph - N/A   Clear
9:15 PM 48.2 °F - 26.6 °F 43% 30.16 in 10.0 mi Calm Calm - N/A   Clear
9:35 PM 46.4 °F - 26.6 °F 46% 30.16 in 10.0 mi Calm Calm - N/A   Clear
9:55 PM 46.4 °F 45.2 °F 26.6 °F 46% 30.17 in 10.0 mi NNE 3.5 mph - N/A   Clear
10:15 PM 50.0 °F - 26.6 °F 40% 30.17 in 10.0 mi NE 3.5 mph - N/A   Clear
10:35 PM 41.0 °F - 24.8 °F 53% 30.17 in 10.0 mi Calm Calm - N/A   Clear
10:55 PM 39.2 °F 37.0 °F 28.4 °F 65% 30.17 in 10.0 mi SSW 3.5 mph - N/A   Clear
11:15 PM 41.0 °F - 26.6 °F 57% 30.17 in 10.0 mi Calm Calm - N/A   Clear
11:35 PM 41.0 °F - 26.6 °F 57% 30.17 in 10.0 mi Calm Calm - N/A   Clear
11:55 PM 37.4 °F - 26.6 °F 65% 30.17 in 10.0 mi Calm Calm - N/A   Clear